ステレオ彗星

414P/STEREO (2025)

English version
Home page
Updated on November 15, 2021

---------------------------------------------------------------------

・ プロフィール

・ 軌道要素

Epoch 2025 Oct. 12.0 TT = JDT 2460960.5                                         
T 2025 Sept. 26.32553 TT                                Rudenko                 
q   0.5241655            (2000.0)            P               Q                  
n   0.21121231     Peri.  210.70732     -0.27662166     -0.87903121             
a   2.7924789      Node   257.81646     +0.94250549     -0.16931899             
e   0.8122938      Incl.   23.40684     +0.18752028     -0.44568510             
P   4.67                                                                        
From 154 observations 2016 May 11-2021 Jan. 19, mean residual 1".9.             

・ 星図

・ 光度変化

        m1 = 23.0 + 5 logΔ + 40.0 log r

---------------------------------------------------------------------

軌道要素はM.P.E.C. 2021-B143に掲載されたものです。
星図はステラナビゲータ Ver.10 (アストロアーツ) で作成したものです。
光度グラフはComet for Windowsで作成したものです。

---------------------------------------------------------------------

Copyright(C) Seiichi Yoshida (comet@aerith.net). All rights reserved.